Regional Weather Roundup
Issued by NWS

Home | Current Version | Previous Version | Graphics & Text | Print | Product List | Glossary On
Versions: 1 2 3 4 5 6 7 8 9 10 11 12 13 14 15 16 17 18 19 20 21 22 23 24 25 26 27 28 29 30 31 32 33 34 35 36 37 38 39 40 41 42 43 44 45 46 47 48 49 50
000
ASUS43 KDMX 250801
RWRIA

WEATHER ROUNDUP FOR IOWA
NATIONAL WEATHER SERVICE DES MOINES IA
200 AM CST SAT FEB 25 2017

NOTE: "FAIR" INDICATES FEW OR NO CLOUDS BELOW 12,000 FEET WITH NO
SIGNIFICANT WEATHER AND/OR OBSTRUCTIONS TO VISIBILITY.

* - THESE STATIONS ARE NOT NWS STATIONS...THUS NOT UNDER NWS
QUALITY CONTROL.  THEY ALSO DO NOT REPORT WEATHER SUCH
AS PRECIPITATION OR FOG.

IAZ001>003-012>014-020>022-031>034-043>046-250900-
   NORTHWEST IOWA

CITY           SKY/WX    TMP DP  RH WIND       PRES   REMARKS
CARROLL *      CLEAR     19  16  86 NW18      30.00R WCI   4
CHEROKEE *     CLEAR     17  13  83 NW9G16    30.03S WCI   6
DENISON *      CLOUDY    18  12  79 NW14G20   30.02R WCI   4
LE MARS *      CLEAR     16  12  86 NW8       30.08S WCI   5
SHELDON *      CLEAR     16  16 100 NW14      30.01S WCI   1
SIOUX CITY     CLEAR     20  14  77 NW13      30.09R WCI   7
SPENCER        CLEAR     15   9  76 NW13      30.00R WCI   1
STORM LAKE *   CLEAR     16  10  79 NW17      29.99S WCI   0
$$

IAZ055>058-069>071-079>083-090>094-250900-
   SOUTHWEST IOWA

CITY           SKY/WX    TMP DP  RH WIND       PRES   REMARKS
ATLANTIC *     CLEAR     19  14  79 NW15      30.04R WCI   5
AUDUBON *      CLOUDY    18  12  79 NW10      30.02R WCI   6
CLARINDA *     CLEAR     23  16  74 NW16G22   30.09R WCI  10
COUNCIL BLFS * CLEAR     19  16  86 NW10      30.07S WCI   8
CRESTON *      CLOUDY    19  14  79 NW20      30.01R WCI   4
HARLAN  *      CLOUDY    19  16  86 NW15      30.08R WCI   5
LAMONI         PTCLDY    21  14  74 NW17G25   29.99R WCI   7
RED OAK *      PTCLDY    21  16  79 NW10      30.07R WCI  10
SHENANDOAH *   PTCLDY    23  16  74 NW9G17    30.09S WCI  13
$$

IAZ047>049-059>061-072>074-084-250900-
   CENTRAL IOWA

CITY           SKY/WX    TMP DP  RH WIND       PRES   REMARKS
AMES           CLEAR     20  16  84 NW20G33   29.95R WCI   4
ANKENY *       CLEAR     19  14  79 NW13G20   29.97R WCI   7
BOONE *        PTCLDY    18  14  86 NW17G25   29.94R WCI   2
CHARITON *     CLEAR     19  16  86 NW20      29.95S WCI   4
DES MOINES     MOCLDY    21  14  74 NW17      29.97R WCI   7
GRINNELL*      PTCLDY    18  14  82 NW14      29.91R WCI   5
KNOXVILLE *    CLEAR     21  14  73 NW15G22   29.93R WCI   8
MARSHALLTOWN   CLEAR     17  11  77 NW15      29.90R WCI   2
NEWTON *       PTCLDY    19  14  79 NW15G24   29.92R WCI   5
PELLA *        CLEAR     20  15  78 NW14G21   29.95R WCI   7
PERRY *          N/A     19  15  83 NW18      29.99R WCI   4
$$

IAZ004>006-015-016-023>025-035-036-250900-
   NORTH CENTRAL IOWA

CITY           SKY/WX    TMP DP  RH WIND       PRES   REMARKS
ALGONA *       CLEAR     16  12  86 NW16G23   29.94S WCI   0
CLARION *      CLEAR     16  14  93 NW22      29.94R WCI  -2
ESTHERVILLE    CLEAR     15  10  80 NW21      29.96R WCI  -2
FORT DODGE *   CLEAR     16   9  73 NW8       29.97S WCI   5
MASON CITY     MOCLDY    16  11  80 NW18      29.90R WCI   0
FOREST CITY *    N/A     14  12  92 NW13      29.91R WCI   0
WEBSTER CITY * CLEAR     18  12  79 NW23      29.93S WCI   0
IOWA FALLS *     N/A     19  14  82 NW21G28   29.91S WCI   2
$$

IAZ007>011-017>019-026>030-037>042-050>054-066-250900-
   NORTHEAST IOWA

CITY           SKY/WX    TMP DP  RH WIND       PRES   REMARKS
CEDAR RAPIDS   LGT SNOW  21  18  88 NW17      29.82R FOG     WCI   7
CHARLES CITY * PTCLDY    18  10  73 NW15G23   29.86R WCI   3
CLINTON *      LGT SNOW  22  19  89 NW21      29.75R FOG     WCI   6
DECORAH *      CLOUDY    19  14  79 NW14G20   29.79R WCI   6
DUBUQUE        LGT SNOW  20  16  84 NW17G23   29.74R FOG     WCI   5
MONTICELLO *   LGT SNOW  21  16  79 NW16G29   29.79R WCI   7
OELWEIN *      CLOUDY    19  14  79 NW18G26   29.83R WCI   4
WATERLOO       CLEAR     19  11  70 NW17      29.86R WCI   4
$$

IAZ064-065-067-068-078-250900-
   EAST CENTRAL IOWA

CITY           SKY/WX    TMP DP  RH WIND       PRES   REMARKS
DAVENPORT      LGT SNOW  23  20  88 NW21G26   29.77R FOG     WCI   8
IOWA CITY      CLOUDY    24  15  68 NW13G25   29.86R WCI  12
MUSCATINE *    CLOUDY    23  18  80 NW17      29.84R WCI   9
QUAD CITIES    CLOUDY    26  19  74 NW15G26   29.77R WCI  14
$$

IAZ062-063-075>077-085>089-095>099-250900-
   SOUTHEAST IOWA

CITY           SKY/WX    TMP DP  RH WIND       PRES   REMARKS
BURLINGTON     FLURRIES  25  20  81 NW18G30   29.83R WCI  11
FAIRFIELD *    CLOUDY    23  16  74 NW18G24   29.88R WCI   9
KEOKUK *       CLOUDY    27  19  74 NW17G31   29.87R WCI  14
CENTERVILLE *    N/A     21  16  79 W15G23    29.95R WCI   8
OTTUMWA        CLEAR     22  14  71 NW18G28   29.91R WCI   7
WASHINGTON *   FLURRIES  25  19  80 NW21G29   29.87R WCI  10
$$

ABBREVIATIONS USED IN REMARKS
   TC - TEMPERATURES IN CELSIUS
  WCI - WIND CHILL INDEX
   HX - HEAT INDEX
  VSB - VISIBILITY
$$




USA.gov is the U.S. government's official web portal to all federal, state and local government web resources and services.